Regional Weather Roundup
Issued by NWS

Home | Current Version | Previous Version | Graphics & Text | Print | Product List | Glossary Off
Versions: 1 2 3 4 5 6 7 8 9 10 11 12 13 14 15 16 17 18 19 20 21 22 23 24 25 26 27 28 29 30 31 32 33 34 35 36 37 38 39 40 41 42 43 44 45 46 47 48 49 50

044
ASUS43 KMKX 251221
RWRWI

WISCONSIN REGIONAL WEATHER ROUNDUP
NATIONAL WEATHER SERVICE MILWAUKEE/SULLIVAN WI
700 AM CDT TUE JUL 25 2017

NOTE: "FAIR" INDICATES FEW OR NO CLOUDS BELOW 12,000 FEET WITH NO
SIGNIFICANT WEATHER AND/OR OBSTRUCTIONS TO VISIBILITY.

WIZ001-002-006>008-014>016-023>028-251300-
NORTHWEST WISCONSIN

CITY           SKY/WX    TMP DP  RH WIND       PRES   REMARKS
SUPERIOR ARPT  NOT AVBL
ASHLAND        CLOUDY    59  57  93 SE3       30.08S
6HR MIN TEMP:  47; 6HR MAX TEMP:  59;

HAYWARD        LGT RAIN  62  58  86 S6        30.09F
6HR MIN TEMP:  56; 6HR MAX TEMP:  63; 6HR PCP: TRACE;

SIREN          CLOUDY    64  60  86 S7        30.06S
6HR MIN TEMP:  63; 6HR MAX TEMP:  65;

CUMBERLAND     CLOUDY    61  59  94 S6        30.09R
RICE LAKE      LGT RAIN  63  59  88 SE8       30.10F
6HR MIN TEMP:  60; 6HR MAX TEMP:  63;

CHETEK         RAIN      62  60  94 SE10G18   30.09F
6HR MIN TEMP:  59; 6HR MAX TEMP:  63; 6HR PCP:  0.01;

LADYSMITH      CLOUDY    61  58  91 S7        30.15F
6HR MIN TEMP:  59; 6HR MAX TEMP:  61;

EAU CLAIRE     CLOUDY    64  59  83 S7        30.11R
6HR MIN TEMP:  61; 6HR MAX TEMP:  64;

MENOMONIE      CLOUDY    63  60  93 E12       30.08F
6HR MIN TEMP:  61; 6HR MAX TEMP:  63;

NEW RICHMOND   MOSUNNY   64  60  84 S7        30.07R
6HR MIN TEMP:  63; 6HR MAX TEMP:  65;

OSCEOLA        CLOUDY    65  65 100 S6        30.09R
6HR MIN TEMP:  64; 6HR MAX TEMP:  67;

$$

WIZ003>005-009-010-017-018-251300-
NORTH CENTRAL WISCONSIN

CITY           SKY/WX    TMP DP  RH WIND       PRES   REMARKS
MANITOWISH WTR MOSUNNY   60  57  90 S7        30.16R
6HR MIN TEMP:  55; 6HR MAX TEMP:  60;

ARBOR VITAE    MOSUNNY   59  54  83 S7        30.15R
6HR MIN TEMP:  57; 6HR MAX TEMP:  62;

WOODRUFF       MOSUNNY   59  54  83 S7        30.15R
6HR MIN TEMP:  57; 6HR MAX TEMP:  62;

RHINELANDER    CLOUDY    55  53  93 SE3       30.17S
6HR MIN TEMP:  50; 6HR MAX TEMP:  60;

EAGLE RIVER    MOSUNNY   56  54  93 S6        30.17S
6HR MIN TEMP:  48; 6HR MAX TEMP:  58;

LAND O LAKES   CLOUDY    54  54 100 S3        30.18F
6HR MIN TEMP:  47; 6HR MAX TEMP:  54;

PHILLIPS       CLOUDY    58  55  88 S8        30.15R
6HR MIN TEMP:  58; 6HR MAX TEMP:  60;

TOMAHAWK         N/A     57  54  88 CALM      30.18R
6HR MIN TEMP:  51; 6HR MAX TEMP:  57;

MEDFORD        LGT RAIN  58  53  81 S5        30.17R
6HR MIN TEMP:  54; 6HR MAX TEMP:  58;

MERRILL        PTSUNNY   57  55  91 CALM      30.18R
6HR MIN TEMP:  48; 6HR MAX TEMP:  61;

$$

WIZ029-030-035-036-043>047-251300-
CENTRAL WISCONSIN

CITY           SKY/WX    TMP DP  RH WIND       PRES   REMARKS
WAUSAU         PTSUNNY   57  52  83 E7        30.14F
6HR MIN TEMP:  54; 6HR MAX TEMP:  60;

MOSINEE        PTSUNNY   55  54  94 SE5       30.16S
MARSHFIELD     CLOUDY    58  54  86 S6        30.16R
6HR MIN TEMP:  54; 6HR MAX TEMP:  60;

STEVENS POINT  MOSUNNY   52  52 100 SE3       30.16F
6HR MIN TEMP:  49; 6HR MAX TEMP:  58;

WAUPACA        CLOUDY    54  53  97 CALM      30.17S
6HR MIN TEMP:  53; 6HR MAX TEMP:  58;

WAUTOMA        PTSUNNY   52  50  93 CALM      30.18S
6HR MIN TEMP:  49; 6HR MAX TEMP:  56;

WISC RAPIDS    MOSUNNY   57  54  89 SE5       30.17R
6HR MIN TEMP:  52; 6HR MAX TEMP:  61;

CAMP DOUGLAS   MOSUNNY   58  57  97 SE5       30.14S
6HR MIN TEMP:  51; 6HR MAX TEMP:  58;

$$

WIZ011>013-019>022-031-037>040-048>050-251300-
NORTHEAST WISCONSIN

CITY           SKY/WX    TMP DP  RH WIND       PRES   REMARKS
ANTIGO         MOSUNNY   54  52  94 CALM      30.19R
6HR MIN TEMP:  51; 6HR MAX TEMP:  56;

SHAWANO        PTSUNNY   56  53  92 SE3       30.17S
6HR MIN TEMP:  54; 6HR MAX TEMP:  61;

OCONTO         PTSUNNY   56  55  94 CALM      30.18R
6HR MIN TEMP:  49; 6HR MAX TEMP:  56;

STURGEON BAY     N/A     62  58  86 MISG      30.19R
6HR MIN TEMP:  53; 6HR MAX TEMP:  62;

GREEN BAY      CLOUDY    57  56  96 CALM      30.19R
6HR MIN TEMP:  52; 6HR MAX TEMP:  57;

MANITOWOC      MOSUNNY   59  54  83 CALM      30.20R
6HR MIN TEMP:  51; 6HR MAX TEMP:  59;

APPLETON       MOSUNNY   61  50  67 S7        30.18R
CLINTONVILLE   CLOUDY   N/A N/A N/A CALM      30.18R
OSHKOSH        CLOUDY    57  52  83 S5        30.18R
6HR MIN TEMP:  51; 6HR MAX TEMP:  60;

$$

WIZ032>034-041-042-053>061-251300-
SOUTHWEST WISCONSIN

CITY           SKY/WX    TMP DP  RH WIND       PRES   REMARKS
LA CROSSE      CLOUDY    66  59  78 S8        30.13R
6HR MIN TEMP:  63; 6HR MAX TEMP:  66;

SPARTA         MOSUNNY   60  58  91 CALM      30.15R
6HR MIN TEMP:  51; 6HR MAX TEMP:  60;

VIROQUA        CLOUDY    59  59 100 CALM      30.15S
6HR MIN TEMP:  58; 6HR MAX TEMP:  61;

BOSCOBEL       SUNNY     61  59  93 CALM      30.16R
6HR MIN TEMP:  56; 6HR MAX TEMP:  61;

PRAIRIE DU CHI MOSUNNY   62  58  90 CALM      30.14S
6HR MIN TEMP:  59; 6HR MAX TEMP:  62;

PLATTEVILLE    SUNNY     59  59 100 E5        30.17R
6HR MIN TEMP:  58; 6HR MAX TEMP:  62;

$$

WIZ056-057-062-063-064-067-068-251300-
SOUTH CENTRAL WISCONSIN

CITY           SKY/WX    TMP DP  RH WIND       PRES   REMARKS
REEDSBURG      CLOUDY    57  57 100 SE3       30.16S
6HR MIN TEMP:  54; 6HR MAX TEMP:  60;

BARABOO/DELLS  CLOUDY    58  56  91 S7        30.16F
6HR MIN TEMP:  52; 6HR MAX TEMP:  59;

LONE ROCK      MOSUNNY   60  57  89 E5        30.16S
6HR MIN TEMP:  56; 6HR MAX TEMP:  60;

MINERAL POINT  SUNNY     59  59 100 SE5       30.17R FOG
MADISON        PTSUNNY   61  58  90 CALM      30.18R
6HR MIN TEMP:  52; 6HR MAX TEMP:  61;

MIDDLETON      SUNNY     57  57 100 CALM      30.19R
6HR MIN TEMP:  50; 6HR MAX TEMP:  63;

WATERTOWN      CLOUDY    56  56 100 CALM      30.18F
6HR MIN TEMP:  52; 6HR MAX TEMP:  56;

MONROE         MOSUNNY   59  57  94 CALM      30.17S
JANESVILLE     MOSUNNY   59  59 100 CALM      30.17S
$$

WIZ051-052-058>065-066-070>072-251300-
SOUTHEAST WISCONSIN

CITY           SKY/WX    TMP DP  RH WIND       PRES   REMARKS
MILWAUKEE      MOSUNNY   64  58  80 CALM      30.19R
6HR MIN TEMP:  58; 6HR MAX TEMP:  64;

WAUKESHA       SUNNY     55  55 100 CALM      30.20R
MILWAUKEE/TIMM SUNNY     57  52  82 CALM      30.20R
RACINE         SUNNY     61  59  93 CALM      30.21R
6HR MIN TEMP:  56; 6HR MAX TEMP:  61;

KENOSHA        SUNNY     61  59  93 CALM      30.19R
6HR MIN TEMP:  53; 6HR MAX TEMP:  61;

FOND DU LAC    SUNNY     56  51  84 SE3       30.19R
6HR MIN TEMP:  51; 6HR MAX TEMP:  56;

SHEBOYGAN      MOSUNNY   57  56  96 CALM      30.19R
6HR MIN TEMP:  49; 6HR MAX TEMP:  57;

WEST BEND      SUNNY     54  54 100 CALM      30.19S
JUNEAU         SUNNY     56  53  90 CALM      30.20R
6HR MIN TEMP:  51; 6HR MAX TEMP:  56;

$$

LSZ147-162-251300-
LAKE SUPERIOR

STATION/POSITION TIME  TEMP    WIND        PRES    WAVE
                       AIR SEA DIR/SP/G            HT/PER
                 (UTC) (F)     (DEG/KT/KT) (MB)    (FT/S)
W MID LAKE BUOY  1150   55 49  190/ 10/ 10 1019.2R   0
DEVILS ISLAND    1200   63     160/  7/  9 1018.2S
SAXON HARBOR     1130   60     110/  3/  5 1018.6R
$$

LMZ867-665-643>646-251300-
LAKE MICHIGAN

STATION/POSITION TIME  TEMP    WIND        PRES    WAVE
                       AIR SEA DIR/SP/G            HT/PER
                 (UTC) (F)     (DEG/KT/KT) (MB)    (FT/S)
CHAMBERS ISLAND  1140   62     140/  2/  4 1021.7R
S GREEN BAY BUOY 1200   66 72  160/  8/ 10 1021.8
N MID LA



USA.gov is the U.S. government's official web portal to all federal, state and local government web resources and services.